Location: ?????????
(53.2086°N, 54.0693°E)
Time: 17:19:42
(UTC+00:00)

CZ-4 R/B - Pass Details

Date: 08 December 2019
Orbit: 579 x 590 km, 97.8° (Epoch: 24 January)

Event Time Altitude Azimuth Distance (km) Brightness Sun altitude
Rises 14:25:06 0° 164° (SSE) 2,813 7.9 -19.4°
Reaches altitude 10° 14:27:15 10° 165° (SSE) 1,917 7.0 -19.7°
Maximum altitude 14:31:25 89° 253° (WSW) 599 4.4 -20.3°
Drops below altitude 10° 14:35:38 10° 345° (NNW) 1,934 7.1 -21.0°
Sets 14:37:48 0° 346° (NNW) 2,840 8.0 -21.3°
